TimeWEST,TemperatureF,Dew PointF,Humidity,Sea Level PressureIn,VisibilityMPH,Wind Direction,Wind SpeedMPH,Gust SpeedMPH,PrecipitationIn,Events,Conditions,WindDirDegrees,DateUTC
12:00 AM,71.6,64.4,78,30.06,-9999.0,WSW,9.2,-,N/A,,Clear,240,2013-09-04 23:00:00
12:30 AM,71.6,64.4,78,30.06,-9999.0,SW,8.1,-,N/A,,Clear,230,2013-09-04 23:30:00
1:00 AM,71.6,64.4,78,30.06,-9999.0,WSW,6.9,-,N/A,,Clear,240,2013-09-05 00:00:00
1:30 AM,69.8,64.4,83,30.04,-9999.0,West,4.6,-,N/A,,Clear,260,2013-09-05 00:30:00
2:00 AM,69.8,64.4,83,30.04,-9999.0,WSW,4.6,-,N/A,,Clear,250,2013-09-05 01:00:00
2:30 AM,68.0,64.4,88,30.04,-9999.0,West,3.5,-,N/A,,Clear,260,2013-09-05 01:30:00
3:00 AM,68.0,64.4,88,30.04,-9999.0,WSW,5.8,-,N/A,,Clear,240,2013-09-05 02:00:00
3:30 AM,66.2,62.6,88,30.04,6.2,WSW,4.6,-,N/A,,Unknown,250,2013-09-05 02:30:00
4:00 AM,66,63,88,29.99,6,WSW,5.8,,,,,240,2013-09-05 03:00:00
4:00 AM,66.2,62.6,88,30.04,6.2,WSW,5.8,-,N/A,,Unknown,240,2013-09-05 03:00:00
4:30 AM,66.2,62.6,88,30.04,-9999.0,WSW,5.8,-,N/A,,Clear,240,2013-09-05 03:30:00
5:00 AM,66.2,62.6,88,30.04,-9999.0,WSW,6.9,-,N/A,,Clear,240,2013-09-05 04:00:00
5:30 AM,66.2,62.6,88,30.04,-9999.0,SW,6.9,-,N/A,,Clear,230,2013-09-05 04:30:00
6:00 AM,66.2,64.4,94,30.01,-9999.0,WSW,6.9,-,N/A,,Clear,240,2013-09-05 05:00:00
6:30 AM,66.2,64.4,94,30.04,6.2,WSW,6.9,-,N/A,,Mostly Cloudy,240,2013-09-05 05:30:00
7:00 AM,66.2,64.4,94,30.04,6.2,WSW,5.8,-,N/A,,Mostly Cloudy,240,2013-09-05 06:00:00
7:21 AM,66.2,64.4,94,30.04,6.2,WSW,5.8,-,N/A,,Mostly Cloudy,250,2013-09-05 06:21:00
7:30 AM,66.2,64.4,94,30.04,5.0,WSW,5.8,-,N/A,,Mostly Cloudy,250,2013-09-05 06:30:00
8:00 AM,68.0,64.4,88,30.04,3.7,WSW,5.8,-,N/A,,Mostly Cloudy,240,2013-09-05 07:00:00
8:30 AM,68.0,64.4,88,30.04,3.7,WSW,6.9,-,N/A,,Mostly Cloudy,240,2013-09-05 07:30:00
9:00 AM,68.0,64.4,88,30.04,3.7,WSW,5.8,-,N/A,,Mostly Cloudy,250,2013-09-05 08:00:00
9:30 AM,68.0,64.4,88,30.04,3.7,WSW,4.6,-,N/A,,Mostly Cloudy,250,2013-09-05 08:30:00
9:46 AM,68,64,81,30.00,4,WSW,3.5,,,,Overcast,240,2013-09-05 08:46:00
10:00 AM,68.0,64.4,88,30.04,3.7,WSW,3.5,-,N/A,,Mostly Cloudy,240,2013-09-05 09:00:00
10:30 AM,69.8,64.4,83,30.04,3.7,WNW,4.6,-,N/A,,Mostly Cloudy,300,2013-09-05 09:30:00
11:00 AM,71.6,64.4,78,30.06,3.7,West,4.6,-,N/A,,Mostly Cloudy,260,2013-09-05 10:00:00
11:04 AM,-9999,-9999,N/A,-9999,5.0,WSW,3.5,-,N/A,,Mostly Cloudy,240,2013-09-05 10:04:00
12:00 PM,73.4,64.4,73,30.04,5.0,West,3.5,-,N/A,,Scattered Clouds,260,2013-09-05 11:00:00
12:30 PM,77.0,64.4,65,30.04,5.0,WNW,4.6,-,N/A,,Scattered Clouds,300,2013-09-05 11:30:00
12:45 PM,77,64,56,29.97,5,West,3.5,,,,Scattered Clouds,260,2013-09-05 11:45:00
1:00 PM,77.0,64.4,65,30.04,5.0,WSW,3.5,-,N/A,,Scattered Clouds,250,2013-09-05 12:00:00
1:30 PM,78.8,64.4,61,30.04,5.0,Variable,4.6,-,N/A,,Scattered Clouds,0,2013-09-05 12:30:00
2:00 PM,82.4,62.6,51,30.01,6.2,Variable,2.3,-,N/A,,Scattered Clouds,0,2013-09-05 13:00:00
2:30 PM,84.2,62.6,48,30.01,6.2,North,5.8,-,N/A,,Scattered Clouds,350,2013-09-05 13:30:00
3:00 PM,86.0,60.8,43,30.01,-9999.0,WNW,5.8,-,N/A,,Clear,290,2013-09-05 14:00:00
3:30 PM,86.0,59.0,40,29.98,-9999.0,WSW,6.9,-,N/A,,Clear,250,2013-09-05 14:30:00
4:00 PM,87,56,25,29.88,6,West,8.1,,,,Clear,280,2013-09-05 15:00:00
4:00 PM,87.8,55.4,33,29.98,-9999.0,West,8.1,-,N/A,,Clear,270,2013-09-05 15:00:00
4:30 PM,87.8,55.4,33,29.98,-9999.0,West,6.9,-,N/A,,Clear,260,2013-09-05 15:30:00
5:00 PM,87.8,55.4,33,29.98,-9999.0,West,10.4,-,N/A,,Clear,280,2013-09-05 16:00:00
5:30 PM,89.6,53.6,29,29.95,-9999.0,West,8.1,-,N/A,,Clear,280,2013-09-05 16:30:00
6:00 PM,87.8,51.8,29,29.98,-9999.0,WNW,10.4,-,N/A,,Clear,300,2013-09-05 17:00:00
6:30 PM,87.8,51.8,29,29.95,-9999.0,WNW,8.1,-,N/A,,Clear,290,2013-09-05 17:30:00
7:00 PM,87,54,22,29.86,6,West,9.2,,,,Clear,280,2013-09-05 18:00:00
7:00 PM,87.8,53.6,31,29.95,-9999.0,WNW,10.4,-,N/A,,Clear,290,2013-09-05 18:00:00
7:30 PM,86.0,53.6,33,29.95,-9999.0,West,8.1,-,N/A,,Clear,270,2013-09-05 18:30:00
8:00 PM,84.2,53.6,35,29.95,-9999.0,NW,8.1,-,N/A,,Clear,320,2013-09-05 19:00:00
8:30 PM,84.2,51.8,33,29.98,-9999.0,WNW,6.9,-,N/A,,Clear,290,2013-09-05 19:30:00
9:00 PM,82.4,51.8,35,29.98,-9999.0,West,4.6,-,N/A,,Clear,270,2013-09-05 20:00:00
9:30 PM,80.6,57.2,45,29.98,-9999.0,West,8.1,-,N/A,,Clear,260,2013-09-05 20:30:00
10:00 PM,79,60,43,29.93,6,WNW,8.1,,,,Clear,300,2013-09-05 21:00:00
10:00 PM,78.8,60.8,54,30.01,-9999.0,NW,6.9,-,N/A,,Clear,310,2013-09-05 21:00:00
10:30 PM,77.0,60.8,57,30.01,-9999.0,WNW,11.5,-,N/A,,Clear,290,2013-09-05 21:30:00
11:00 PM,75.2,60.8,61,30.04,-9999.0,West,9.2,-,N/A,,Clear,280,2013-09-05 22:00:00
11:30 PM,71.6,60.8,69,30.04,-9999.0,WSW,10.4,-,N/A,,Clear,240,2013-09-05 22:30:00